www.dot.state.il.us - /desenv/hwystds/rev210/Web PDFs/


[To Parent Directory]

Monday, October 06, 2008 9:52 AM 42707456 1_Rev210_AllHighwayStandards_PDF.exe
Monday, September 15, 2008 3:25 PM 1002496 1_Rev210_Div000_PDF.exe
Monday, September 15, 2008 3:26 PM 464896 1_Rev210_Div200_PDF.exe
Monday, September 15, 2008 3:27 PM 148992 1_Rev210_Div300_PDF.exe
Monday, September 15, 2008 3:28 PM 7159296 1_Rev210_Div400_PDF.exe
Tuesday, September 16, 2008 9:30 AM 8091136 1_Rev210_Div500_PDF.exe
Tuesday, January 20, 2009 10:42 AM 14197248 1_Rev210_Div600_PDF.exe
Friday, October 03, 2008 11:35 AM 7037952 1_Rev210_Div700_PDF.exe
Monday, September 15, 2008 3:34 PM 2091520 1_Rev210_Div800_PDF.exe
Monday, September 15, 2008 3:35 PM 2419712 1_Rev210_DivBLR_PDF.exe
Thursday, September 13, 2007 3:36 PM 727140 210-000001-05_StandardSymbolsAbbreviations&Patterns.pdf
Thursday, September 04, 2008 2:51 PM 128783 210-001001-02_AreasOfReinfRebars.pdf
Monday, January 26, 2004 8:59 PM 146689 210-001006_DecimalOfInch&Foot.pdf
Tuesday, September 11, 2007 3:29 PM 64524 210-202001-01_EarthMedDitchCheck.pdf
Thursday, September 13, 2007 3:36 PM 248550 210-280001-04_TempErosionCntrlSystems.pdf
Tuesday, September 11, 2007 3:31 PM 131541 210-285001-02_FabricFormedConcRevetmentMats.pdf
Tuesday, September 11, 2007 3:32 PM 114628 210-353001-04_PCCBseCseWithHMABind&SurfCses.pdf
Thursday, September 13, 2007 3:37 PM 274490 210-406001-05_EntrRampTermFlexPvmt.pdf
Thursday, September 13, 2007 3:37 PM 417145 210-406101-04_ExitRampTerminalFlexiblePvmt.pdf
Wednesday, September 12, 2007 1:12 PM 92291 210-406201-01_MailboxTurnout.pdf
Thursday, September 13, 2007 3:38 PM 258473 210-420001-07_PavementJoints.pdf
Wednesday, September 12, 2007 1:17 PM 115008 210-420101-04_24ftJointedPCCPvmt.pdf
Wednesday, September 12, 2007 1:18 PM 135172 210-420106-04_36ftJointedPCCPvmt.pdf
Thursday, September 13, 2007 3:38 PM 328986 210-420111-02_PCCPvmtRoundouts.pdf
Thursday, September 13, 2007 3:39 PM 350193 210-420201-07_EntrRampTerm-PCCAdjToPCC.pdf
Thursday, September 13, 2007 3:40 PM 354855 210-420206-08_EntrRampTerm-PCCAdjToCRC.pdf
Thursday, September 13, 2007 3:40 PM 508010 210-420301-04_ExitRampTerm-PCCAdjToPCC.pdf
Thursday, September 13, 2007 3:40 PM 501693 210-420306-06_ExitRampTerm-PCCAdjToCRC.pdf
Tuesday, September 09, 2008 10:58 AM 218033 210-420401-07_BridgeApproachPvmt.pdf
Wednesday, September 12, 2007 1:35 PM 112025 210-420501-04_PCCPvmt&PCCBseCseAdjToRRGradeXing.pdf
Wednesday, September 12, 2007 1:37 PM 92818 210-420601-05_24ftPCCPvmt.pdf
Wednesday, September 12, 2007 1:38 PM 131889 210-420701-02_PavementFabric.pdf
Wednesday, September 12, 2007 1:38 PM 137652 210-421001-02_BarReinfForCRCPvmt.pdf
Thursday, September 13, 2007 3:42 PM 482366 210-421101-07_24ftCRCPvmt-wWideFlangeBeamTermJt.pdf
Thursday, September 13, 2007 3:42 PM 489591 210-421106-07_36ftCRCPvmt-wWideFlangeBeamTermJt.pdf
Thursday, September 13, 2007 3:42 PM 363620 210-421201-06_24ftCRCPvmt-wLugSys.pdf
Thursday, September 13, 2007 3:43 PM 389705 210-421206-06_36ftCRCPvmt-wLugSys.pdf
Thursday, September 13, 2007 3:43 PM 250267 210-424001-05_CurbRampsForSidewalk.pdf
Thursday, September 13, 2007 3:44 PM 208919 210-442001-04_ClassAPatches.pdf
Thursday, September 13, 2007 3:44 PM 305551 210-442101-07_ClassBPatches.pdf
Wednesday, September 12, 2007 1:50 PM 151949 210-442201-03_ClassC&DPatches.pdf
Wednesday, September 12, 2007 1:51 PM 124567 210-482001-02_HMAShldAdjToFlexPvmt.pdf
Wednesday, September 12, 2007 1:51 PM 123389 210-482006-03_HMAShldAdjToRigidPvmt.pdf
Thursday, September 13, 2007 3:45 PM 230871 210-482011-03_HMAShldStrips(Shlds)wResurfOrWiden&ResurfProj.pdf
Wednesday, September 12, 2007 1:53 PM 186602 210-483001-04_PCCShld.pdf
Tuesday, September 09, 2008 10:59 AM 309853 210-509001-01_TubularThrieBeamRetrofitRailForBridge.pdf
Tuesday, September 09, 2008 10:59 AM 153930 210-515001-03_NamePlateForBridges.pdf
Friday, September 05, 2008 1:13 PM 123980 210-542001-02_ReinfConcEndSect-wParallelWngwalls12-48inDiaRtAngle.pdf
Friday, September 05, 2008 1:14 PM 161852 210-542101-02_ReinfConcEndSectForPipeCulv15-36inDiaRtAngle.pdf
Tuesday, September 09, 2008 11:00 AM 279823 210-542106-02_ReinfConcEndSectForPipeCulv42-60inDiaRtAngle.pdf
Tuesday, September 09, 2008 11:04 AM 303327 210-542111-02_ReinfConcEndSectForPipeCulv66-84inDiaRtAngle.pdf
Tuesday, September 09, 2008 11:05 AM 368803 210-542116-02_ReinfConcEndSectForMultPipeCulv15-36inDiaRtAngle.pdf
Tuesday, September 09, 2008 11:06 AM 399005 210-542121-02_ReinfConcEndSectForMultPipeCulv42-60inDiaRtAngle.pdf
Tuesday, September 09, 2008 11:07 AM 1534124 210-542201-02_ReinfConcEndSectForPipeCulv15-36inDiaSkewed.pdf
Tuesday, September 09, 2008 11:08 AM 967540 210-542206-01_ReinfConcEndSectForPipeCulv42-60inDiaSkewed.pdf
Friday, September 05, 2008 1:39 PM 162706 210-542301-02_PrecastReinfConcFlaredEndSect.pdf
Friday, September 05, 2008 1:39 PM 137514 210-542306-02_PrecastReinfConcEllipticalFlaredEndSect.pdf
Tuesday, September 09, 2008 11:09 AM 321217 210-542311-01_GratingForConcFlaredEndSection24-54inPipe.pdf
Friday, September 05, 2008 1:41 PM 196707 210-542401-01_MetalEndSectForPipeCulv.pdf
Friday, September 05, 2008 1:41 PM 196847 210-542406-01_MetalEndSectForPipeArch.pdf
Tuesday, September 09, 2008 11:09 AM 203226 210-542501-02_InletBoxTypeA24in.pdf
Tuesday, September 09, 2008 11:10 AM 237219 210-542506-02_InletBoxTypeB24in.pdf
Tuesday, September 09, 2008 11:11 AM 236040 210-542511-02_InletBoxTypeC24in.pdf
Tuesday, September 09, 2008 11:12 AM 252549 210-542516-02_InletBoxTypeD24in.pdf
Tuesday, September 09, 2008 11:37 AM 254649 210-542521-02_InletBoxTypeE24in.pdf
Tuesday, September 09, 2008 11:37 AM 262906 210-542526-02_InletBoxTypeF24in.pdf
Tuesday, September 16, 2008 8:59 AM 233689 210-542531-03_InletBoxTypeG24in.pdf
Tuesday, September 09, 2008 11:39 AM 279065 210-542536-02_InletBoxTypeA36in.pdf
Tuesday, September 09, 2008 11:39 AM 274601 210-542541-02_InletBoxTypeA48in.pdf
Friday, September 05, 2008 1:52 PM 165403 210-542546-01_FlushInletBoxForMedian.pdf
Friday, September 05, 2008 1:52 PM 95091 210-542601-01_RCPipeElbow.pdf
Friday, September 05, 2008 1:53 PM 195026 210-542606-01_RCPipeTee.pdf
Tuesday, September 09, 2008 11:40 AM 291483 210-601001-03_SubSurfDrains.pdf
Friday, September 05, 2008 2:09 PM 70258 210-601101-01_ConcHdwForPipeDrain.pdf
Friday, September 05, 2008 2:10 PM 129170 210-602001-01_CatchBasin-TypeA.pdf
Friday, September 05, 2008 2:10 PM 132030 210-602006-02_CatchBasin-TypeB.pdf
Friday, September 05, 2008 2:11 PM 80368 210-602011-01_CatchBasin-TypeC.pdf
Friday, September 05, 2008 2:11 PM 164373 210-602016-01_CatchBasin-TypeD.pdf
Tuesday, September 09, 2008 11:41 AM 241752 210-602101-02_DrainStruc-Type1&2&3.pdf
Tuesday, September 09, 2008 11:41 AM 239829 210-602106-01_DrainStruc-Type4&5&6.pdf
Friday, September 05, 2008 2:14 PM 75653 210-602301-02_Inlet-TypeA.pdf
Friday, September 05, 2008 2:14 PM 107141 210-602306-02_Inlet-TypeB.pdf
Friday, September 05, 2008 2:14 PM 120020 210-602401-02_Manhole-TypeA.pdf
Tuesday, September 09, 2008 11:48 AM 216871 210-602406-03_Manhole-TypeA6ftDia.pdf
Tuesday, September 09, 2008 11:49 AM 238345 210-602411-01_Manhole-TypeA7ftDia.pdf
Tuesday, September 09, 2008 11:50 AM 240465 210-602416-01_Manhole-TypeA8ftDia.pdf
Tuesday, September 09, 2008 1:56 PM 236697 210-602421-01_Manhole-TypeA9ftDia.pdf
Friday, September 05, 2008 2:20 PM 117792 210-602501-01_ValveVault-TypeA.pdf
Friday, September 05, 2008 2:20 PM 133047 210-602601-02_PrecastReinfConcFlatSlabTop.pdf
Tuesday, September 09, 2008 1:58 PM 91242 210-602701-02_ManholeSteps.pdf
Friday, September 05, 2008 2:22 PM 83554 210-604001-03_Frame&Lids-Type1.pdf
Friday, September 05, 2008 2:22 PM 107081 210-604006-04_Frame&GrateType3.pdf
Friday, September 05, 2008 2:23 PM 114182 210-604011-04_Frame&GrateType3V.pdf
Friday, September 05, 2008 2:24 PM 63198 210-604016-02_Frame&GrateType4.pdf
Friday, September 05, 2008 2:24 PM 109691 210-604021-02_BaseFrame&LidsType5.pdf
Friday, September 05, 2008 3:56 PM 83458 210-604026-02_Frame&GrateType6.pdf
Friday, September 05, 2008 3:56 PM 45208 210-604031-02_GrateType7.pdf
Friday, September 05, 2008 3:57 PM 51428 210-604036-02_GrateType8.pdf
Friday, September 05, 2008 3:57 PM 70944 210-604041-02_Frame&GrateType9.pdf
Friday, September 05, 2008 3:58 PM 71314 210-604046-02_Frame&GrateType10.pdf
Friday, September 05, 2008 3:58 PM 107364 210-604051-03_Frame&GrateType11.pdf
Friday, September 05, 2008 3:59 PM 121215 210-604056-03_Frame&GrateType11V.pdf
Friday, September 05, 2008 3:59 PM 78284 210-604061-02_Frame&GrateType12.pdf
Friday, September 05, 2008 4:00 PM 115716 210-604066-02_Frame&LidType15.pdf
Friday, September 05, 2008 4:00 PM 83386 210-604071-04_Frame&GrateType20.pdf
Friday, September 05, 2008 4:01 PM 106004 210-604076-04_Frame&GrateType21.pdf
Friday, September 05, 2008 4:01 PM 97590 210-604081-04_Frame&GrateType22.pdf
Friday, September 05, 2008 4:02 PM 109731 210-604086-02_Frame&GrateType23.pdf
Friday, September 05, 2008 4:02 PM 106018 210-604091-02_Frame&GrateType24.pdf
Friday, September 05, 2008 4:03 PM 120146 210-604101-01_MedianInletFor24inRCPipe.pdf
Friday, September 05, 2008 4:03 PM 128082 210-604106-01_MedianInletFor36inRCPipe.pdf
Tuesday, September 09, 2008 2:00 PM 314928 210-606001-04_ConcCurbTypeB&ComboConcC&G.pdf
Tuesday, September 09, 2008 2:01 PM 311224 210-606006-02_OutletsForConcC&G-TypeB-6.24.pdf
Tuesday, September 09, 2008 2:02 PM 281763 210-606101-04_TypeAGut-InlOutl&Entr.pdf
Friday, September 05, 2008 4:07 PM 133376 210-606106-04_OutlType1ForTypeAGut.pdf
Friday, September 05, 2008 4:08 PM 145554 210-606111-03_OutlType2ForTypeAGut.pdf
Tuesday, September 09, 2008 2:03 PM 242419 210-606201-02_TypeBGut-InlOutl&Entr.pdf
Friday, September 05, 2008 4:09 PM 126181 210-606206-03_OutlType1ForTypeBGut.pdf
Friday, September 05, 2008 4:09 PM 146175 210-606211-03_OutlType2ForTypeBGut.pdf
Tuesday, September 09, 2008 2:04 PM 331036 210-606301-04_PCCIslands&Medians.pdf
Friday, September 05, 2008 4:11 PM 119239 210-606306-03_CorrugatedPCCMedians.pdf
Friday, September 05, 2008 4:11 PM 162217 210-606401-01_PavedDitch.pdf
Tuesday, September 09, 2008 2:06 PM 298303 210-609001-04_BridgeApproachShldPvmt&Drain.pdf
Tuesday, September 09, 2008 2:22 PM 288229 210-609006-04_BridgeApproachPvmt(DrainDetail).pdf
Tuesday, September 09, 2008 2:23 PM 284505 210-610001-04_ShldInletWithCurb.pdf
Tuesday, September 09, 2008 2:38 PM 382419 210-630001-08_SteelPlateBeamGrdrail.pdf
Tuesday, September 09, 2008 2:39 PM 209652 210-630101-08_GuardrailMountedOnExCulv.pdf
Monday, September 08, 2008 9:09 AM 128080 210-630201-06_PCC-BitStb@SteelPlateBeamGrdRail.pdf
Tuesday, September 09, 2008 2:41 PM 145831 210-630301-05_ShldWidenForType1GrdrailTerms.pdf
Monday, September 08, 2008 10:24 AM 112035 210-631006-06_TrafBarTermType1B.pdf
Monday, September 08, 2008 10:25 AM 117452 210-631011-05_TrafBarTermType2.pdf
Monday, September 08, 2008 10:25 AM 157438 210-631026-05_TrafBarTermType5.pdf
Tuesday, September 09, 2008 2:42 PM 304187 210-631031-07_TrafBarTermType6.pdf
Tuesday, September 09, 2008 2:43 PM 349473 210-631032-04_TrafBarTermType6A.pdf
Tuesday, September 09, 2008 2:44 PM 229831 210-631033-03_TrafBarTermType6B.pdf
Monday, September 08, 2008 10:29 AM 157638 210-631036-05_TrafBarTermType8.pdf
Monday, September 08, 2008 10:30 AM 148624 210-631041-02_TrafBarTermType9.pdf
Monday, September 08, 2008 10:31 AM 133687 210-631046-04_TrafBarTermType10.pdf
Monday, September 08, 2008 10:31 AM 162148 210-631051-02_TrafBarTermType11.pdf
Monday, September 08, 2008 10:32 AM 134154 210-631056-02_TrafBarTermType12.pdf
Monday, September 08, 2008 10:33 AM 227269 210-635001-01_Delineators.pdf
Monday, September 08, 2008 10:33 AM 107894 210-635006-03_Reflector&TermMrkrPlacemnt.pdf
Tuesday, September 09, 2008 2:45 PM 191258 210-635011-02_ReflectorMrkr&MountDetails.pdf
Tuesday, January 20, 2009 10:37 AM 398872 210-636001-02_CableRdGrd-SingleStrand.pdf
Tuesday, September 09, 2008 2:47 PM 179018 210-637001-04_ConcBarrierDblFace32in.pdf
Tuesday, September 09, 2008 2:48 PM 181399 210-637006-02_ConcBarrierDblFace42in.pdf
Monday, September 08, 2008 10:55 AM 98966 210-638001-02_GlareScreenBlades.pdf
Monday, September 08, 2008 10:55 AM 72354 210-638101-02_ConcGlareScreen.pdf
Tuesday, September 09, 2008 2:48 PM 239726 210-639001-02_Sightscrn-PrecstPrestressConcPanelWall.pdf
Tuesday, September 09, 2008 2:49 PM 302137 210-640001-01_Sightscrn-ChainLinkFence.pdf
Monday, September 08, 2008 10:59 AM 129325 210-641001-01_Sightscrn-CedarStckadeFenceTypeS.pdf
Monday, September 08, 2008 11:00 AM 122776 210-641006-01_Sightscrn-WoodPlankFenceTypeP.pdf
Monday, September 08, 2008 11:00 AM 103791 210-642001-01_ShldRumbleStrips.pdf
Tuesday, September 09, 2008 3:31 PM 488032 210-664001-02_ChainLinkFence.pdf
Tuesday, September 09, 2008 3:32 PM 622199 210-665001-02_WovenWireFence.pdf
Monday, September 08, 2008 11:06 AM 95146 210-666001-01_ROWMrkrs.pdf
Monday, September 08, 2008 11:07 AM 65699 210-667001-01_DrainageMrkrs.pdf
Monday, September 08, 2008 11:07 AM 106411 210-667101-01_PermanentSurveyMrkrs.pdf
Monday, September 08, 2008 11:08 AM 52106 210-668001-01_MethOfResetting-USGS&NGS-Benchmarks.pdf
Monday, September 08, 2008 11:09 AM 60038 210-701001-02_OffRdOp-2L2W-15ftMinFromEOP-45MPH+.pdf
Monday, September 08, 2008 11:09 AM 99009 210-701006-03_OffRdOp-2L2W-15ftToEOP-45MPH+.pdf
Monday, September 08, 2008 11:10 AM 96045 210-701011-02_OffRdMovingOp-2L2W-DayOnly-45MPH+.pdf
Monday, September 08, 2008 11:10 AM 101242 210-701101-02_OffRdOp-MultiLn-LessThan15ftToEOP.pdf
Monday, September 08, 2008 11:10 AM 64290 210-701106-02_OffRdOp-MultiLn-MoreThan15ftAway.pdf
Monday, September 08, 2008 11:11 AM 112962 210-701201-03_LnClosure2L2W-DayOnly.pdf
Monday, September 08, 2008 11:11 AM 96012 210-701206-02_LnClosure2L2W-NightOnly45MPH+.pdf
Monday, September 08, 2008 11:12 AM 100221 210-701301-03_LnClosure2L2W-ShortTimeOp.pdf
Monday, September 08, 2008 11:13 AM 111750 210-701306-02_LnClosure2L2W-SlowMoveOpDayOnly45MPH+.pdf
Monday, September 08, 2008 11:13 AM 88807 210-701311-03_LnClosure2L2W-MovingOpDayOnly.pdf
Tuesday, September 09, 2008 3:47 PM 358402 210-701316-04_LnClosure2L2W-BridgeRepair45MPH+.pdf
Tuesday, September 09, 2008 3:48 PM 247175 210-701321-10 LnClosure2L2W-BridgeRepair+Barrier.pdf
Monday, September 08, 2008 11:17 AM 127890 210-701326-03_LnClosure2L2W-PvmtWidening45MPH+.pdf
Monday, September 08, 2008 11:18 AM 150807 210-701331-03_LnClosure2L2W+RunAround45MPH+.pdf
Monday, September 08, 2008 11:18 AM 152700 210-701336-05_LnClosure2L2W-WorkAreasInSeries45MPH+.pdf
Monday, September 08, 2008 11:19 AM 140073 210-701400-03_ApprchToLnClosure-FrwayExpway.pdf
Monday, September 08, 2008 11:19 AM 166743 210-701401-05_LnClosureFrwayExpway.pdf
Monday, September 08, 2008 11:20 AM 135382 210-701402-07_LnClosureFrwayExpway+Barrier.pdf
Monday, September 08, 2008 11:20 AM 137577 210-701406-05_LnClosureFrwayExpway-DayOpOnly.pdf
Tuesday, September 09, 2008 4:08 PM 296066 210-701411-05_LnClosureMultiLn-EntrOrExitRamp45MPH+.pdf
Monday, September 08, 2008 11:25 AM 143293 210-701416-06_LnClosureFrwayExpway+Crossover&Barrier.pdf
Monday, September 08, 2008 11:25 AM 157054 210-701421-02_LnClosureMultiLn-DayOpOnly45-55MPH.pdf
Monday, September 08, 2008 11:26 AM 185851 210-701422-02_LnClosureMultiLn-45-55MPH.pdf
Monday, September 08, 2008 11:26 AM 164136 210-701423-03_LnClosureMultiln+Barrier45-55MPH.pdf
Monday, September 08, 2008 11:27 AM 153743 210-701426-03_LnClosureMultiLn-IntermittantOrMovingOp45MPH+.pdf
Monday, September 08, 2008 11:27 AM 194390 210-701431-05_LnClosureMultiLnUndivided+Crossover45-55MPH.pdf
Monday, September 15, 2008 4:10 PM 185193 210-701446-01_TwoLnClosure-FrwayExpway.pdf
Monday, September 08, 2008 11:29 AM 78310 210-701451_RampClosureFreewayExp.pdf
Monday, September 08, 2008 11:52 AM 63829 210-701456_PartialExitRampClosureFrewayExp.pdf
Monday, September 08, 2008 11:53 AM 122297 210-701501-05_UrbanLnClosure2L2W-Undivided.pdf
Tuesday, September 09, 2008 3:52 PM 205079 210-701502-03_UrbanLnClosure2L2W+BidirectLeftTurnLn.pdf
Tuesday, September 09, 2008 3:53 PM 185674 210-701601-06_UrbanLnClosureMultiLn1W2W+NontrvsableMed.pdf
Tuesday, September 09, 2008 3:55 PM 339414 210-701602-04_UrbanLnClosureMultiLn2W+BidirectLeftTurnLn.pdf
Tuesday, September 09, 2008 3:56 PM 214681 210-701606-06_UrbanLnClosureMultiLn2W+MountableMed.pdf
Monday, September 08, 2008 1:17 PM 150548 210-701701-06_UrbanLnClosureMultiLnIntersection.pdf
Monday, September 15, 2008 4:12 PM 128994 210-701801-04_LnClosureMultiLn1W2W+CrosswalkOrSWClosure.pdf
Friday, September 19, 2008 11:39 AM 331313 210-701901-01_TrafCntrlDevices.pdf
Friday, October 03, 2008 11:29 AM 217148 210-704001-05_TempConcBarrier.pdf
Monday, September 08, 2008 1:38 PM 99014 210-720001-01_SignPanelMountDetails.pdf
Monday, September 08, 2008 1:39 PM 105702 210-720006-02_SignPanelErectDetails.pdf
Monday, September 08, 2008 1:39 PM 89595 210-720011-01_MetalPostsForSignsMrkrs&Delineators.pdf
Monday, September 08, 2008 1:40 PM 123292 210-720016-02_MastArmMountedStNameSigns.pdf
Tuesday, September 09, 2008 3:58 PM 222896 210-720021-02_SignPanels-ExtrudedAlumType.pdf
Monday, September 08, 2008 1:41 PM 78083 210-728001-01_TelescopingSteelSignSupport.pdf
Monday, September 08, 2008 1:42 PM 115813 210-729001-01_AppOfTypesA&BPosts.pdf
Monday, September 08, 2008 1:42 PM 77240 210-731001-01_BaseForTelescopingSteelSignSupport.pdf
Tuesday, September 09, 2008 4:00 PM 190265 210-780001-02_TypicalPvmtMrkings.pdf
Monday, September 08, 2008 1:43 PM 114218 210-781001-03_TypicalAppRaisedReflcPvmtMrkrs.pdf
Monday, September 08, 2008 2:15 PM 121623 210-805001-01_ElecSrvcInstallDetails.pdf
Monday, September 08, 2008 2:16 PM 94045 210-814001-02_Handholes.pdf
Monday, September 08, 2008 2:16 PM 130115 210-814006-02_DoubleHandholes.pdf
Tuesday, September 09, 2008 4:01 PM 137139 210-857001-01_StdPhaseDesignationDiagrams&PhaseSeq.pdf
Monday, September 08, 2008 2:18 PM 92683 210-857006-01_SupervisedRRInterconnectCircuit-.pdf
Monday, September 08, 2008 2:18 PM 40094 210-862001-01_UPS.pdf
Monday, September 08, 2008 2:19 PM 128355 210-873001-02_TrafSignalGround&Bond.pdf
Monday, September 08, 2008 2:20 PM 58210 210-876001-01_PedestrianPushButtonPost.pdf
Monday, September 08, 2008 2:20 PM 103936 210-877001-04_SteelMastArmAssembly&Pole16'thre55'.pdf
Monday, September 08, 2008 2:21 PM 106135 210-877002-01_SteelMastArmAssembly&Pole56'thru75'.pdf
Monday, September 08, 2008 2:21 PM 127329 210-877006-03_SteelMastArmAssembly&Pole+DualMastArms.pdf
Monday, September 08, 2008 2:22 PM 155171 210-877011-04_SteelComboMastArmAssembly&Pole16'thru55'.pdf
Monday, September 08, 2008 2:23 PM 157054 210-877012-01_SteelComboMastArmAssembly&Pole56'thru75'.pdf
Tuesday, September 09, 2008 4:02 PM 251195 210-878001-07_ConcreteFoundationDetails.pdf
Monday, September 08, 2008 2:24 PM 140515 210-880001-01_SpanWireMountSignals&FlashBeaconInstall.pdf
Monday, September 08, 2008 2:25 PM 85329 210-880006-01_TrfSignalMountDetails-Post&BracketMount.pdf
Monday, September 08, 2008 2:25 PM 138769 210-886001-01_DetectorLoopInstallations.pdf
Monday, September 08, 2008 2:26 PM 73739 210-886006-01_TypicalLayoutsForDetectionLoops.pdf
Tuesday, September 09, 2008 4:03 PM 338666 210-BLR10-6_PCCPvmtSpecial-NonReinf.pdf
Monday, September 08, 2008 2:49 PM 148299 210-BLR14-10_PCCPvmt-NonReinf.pdf
Monday, September 08, 2008 2:50 PM 164874 210-BLR17-4_TrafCntrlDevices-DayLaborConstr.pdf
Monday, September 08, 2008 2:51 PM 171353 210-BLR18-5_TrafCntrlDevices-DayLaborMaint.pdf
Tuesday, September 09, 2008 4:05 PM 307851 210-BLR20-6_TrafBarrierTermType5R.pdf
Monday, September 08, 2008 2:52 PM 146818 210-BLR21-8_TypAppTrafCntrlDevices-ConstrOnRuralLocalHwys.pdf
Monday, September 08, 2008 2:53 PM 127969 210-BLR22-6_TypAppTrafCntrlDevices-ConstrOnRuralLocalHwys(2L2W-RdClsdToThruTraf).pdf
Tuesday, September 09, 2008 4:05 PM 283443 210-BLR23-3_TrafBarrierTermType1.pdf
Monday, September 08, 2008 2:54 PM 107352 210-BLR24-2_MailboxTurn-LocalRds.pdf
Monday, September 08, 2008 2:54 PM 42059 210-BLR25-1_Type1ABarrForNonNHSRts.pdf
Tuesday, September 09, 2008 4:06 PM 454023 210-BLR26-1_SteelPlateBeemGR27.5inchHt.pdf
Monday, September 08, 2008 2:57 PM 170483 210-BLR27-1_TrafBarTermType5A.pdf
Friday, January 30, 2009 8:18 AM <dir> _vti_cnf